Flag for Germany Weather past 2 weeks in Euskirchen, North Rhine-Westphalia, Germany

Now
59 °F

Passing clouds.


Feels Like: 60 °F
Forecast: 34 / 63 °F
Wind: 3 mph from East

Location: Noervenich


UV Index: 3 (Moderate)

Visibility: N/A


Pressure: 30.33 "Hg

Humidity: 31%

Dew point: 28 °F

Location of EuskirchenLocation

Historic Weather in Euskirchen

°F

Euskirchen temperature yesterday

Maximum temperature yesterday: 50 °F (at 5:20 PM)
Minimum temperature yesterday: 37 °F (at 7:20 AM)
Average temperature yesterday: 43 °F

Past Weeks' High & Low Weather Summary

 TemperatureHumidityPressure
High72 °F (Apr 7, 4:20 PM)100% (Apr 5, 6:20 AM)30.45 "Hg (Apr 5, 6:20 AM)
Low32 °F (Apr 16, 5:20 AM)31% (Apr 16, 2:20 PM)29.62 "Hg (Apr 3, 3:20 AM)
Average53 °F69%30.02 "Hg
* Reported Apr 1 5:00 PM — Apr 16 5:20 PM, Euskirchen, Weather by CustomWeather, © 2014

Note: Actual official high and low records may vary slightly from our data, if they occured in-between our weather recording intervals... More about our weather records

Advertising

Historic Weather Conditions — Data for Previous 24 hours

 ConditionsComfort  
Time TempWeatherWind HumidityBarometerVisibility
5:20 PM
Apr 16
59 °FPassing clouds.6 mph31%30.36 "HgN/A
4:20 PM57 °FPassing clouds.7 mph31%30.36 "HgN/A
3:20 PM57 °FPassing clouds.6 mph31%30.39 "HgN/A
2:20 PM55 °FPassing clouds.5 mph31%30.39 "HgN/A
1:20 PM54 °FPassing clouds.5 mph35%30.42 "HgN/A
12:20 PM52 °FPassing clouds.5 mph47%30.42 "HgN/A
11:20 AM48 °FPassing clouds.5 mph58%30.45 "HgN/A
10:20 AM45 °FPassing clouds.3 mph66%30.45 "HgN/A
9:20 AM43 °FPassing clouds.3 mph66%30.42 "HgN/A
8:20 AM39 °FPassing clouds.2 mph81%30.42 "HgN/A
7:20 AM32 °FPassing clouds.No wind93%30.42 "HgN/A
6:20 AM32 °FPassing clouds.3 mph93%30.39 "HgN/A
5:20 AM32 °FChilly.2 mph93%30.39 "HgN/A
4:20 AM34 °FChilly.2 mph93%30.39 "HgN/A
3:20 AM36 °FPassing clouds.1 mph87%30.39 "HgN/A
2:20 AM37 °FPassing clouds.2 mph81%30.39 "HgN/A
12:20 AM39 °FPassing clouds.3 mph75%30.36 "HgN/A
11:20 PM
Apr 15
43 °FPassing clouds.5 mph66%30.36 "HgN/A
10:20 PM43 °FPassing clouds.6 mph61%30.36 "HgN/A
9:20 PM43 °FScattered clouds.5 mph61%30.33 "HgN/A
8:20 PM46 °FScattered clouds.6 mph57%30.33 "HgN/A
7:20 PM48 °FScattered clouds.8 mph58%30.30 "HgN/A
6:20 PM50 °FPartly sunny.10 mph50%30.30 "HgN/A
Weather by CustomWeather, © 2014

See weather overview